Location: Doschendorf
(50.0069°N, 11.0602°E)
Time: 15:56:22
(UTC+00:00)

Genesis I - Pass Details

Date: 17 November 2019
Orbit: 491 x 533 km, 64.5° (Epoch: 08 December)

Event Time Altitude Azimuth Distance (km) Brightness Sun altitude
Rises 16:43:38 0° 235° (SW) 2,670 8.3 -11.8°
Reaches altitude 10° 16:45:53 10° 240° (WSW) 1,782 7.3 -12.2°
Maximum altitude 16:49:47 49° 317° (NW) 692 4.0 -12.8°
Enters shadow 16:53:15 13° 31° (NNE) 1,621 5.3 -13.3°
